COSMOS 531

导读

COSMOS 531是苏联/独联体(CIS)“宇宙”(COSMOS)卫星系列的一员,于1972年11月1日发射入轨。“宇宙”是全球规模最大的卫星系列,涵盖科学探测、技术试验与各类军用任务,多数为军用卫星。作为该序列第531颗卫星,它承担着空间技术验证或航天科研任务,是苏联冷战航天探索与军事航天布局的组成部分。

Basic Information
目录编号:
6266
目录名称:
COSMOS 531
国际标识:
1972-087D
轨道中心:
EARTH
卫星名称:
COSMOS 531
卫星全名:
--
卫星状态:
在轨 (已飞行19584 天)
发射日期:
1972-11-01 UTC
国别 :
俄罗斯(独联体) (CIS)
星等 :
--
Orbit Information
数据来源 国际轨道数据 AOE轨道数据
星历时间 2026-06-15T07:26:28+0800
7小时前
查看轨道信息
2026-06-15T06:00:00+0800
9小时前
查看轨道信息
半长轴 7822.598km 7822.598km
偏心率 0.0031611 0.0031625
轨道倾角 74.034° 74.035°
近地点辐角 286.131° 286.414°
升交点赤经 118.287° 118.367°
平近点角 146.407° 234.949°
近地点 1419.732km 1419.722km
远地点 1469.19km 1469.2km
周期 114.759分钟 114.759分钟
每日圈数 12.548052 12.548051
Detailed Information
使用方式:
暂无
2D Orbit Map
3D Orbit Map
Orbit Altitude Analysis Chart
Orbit Inclination Analysis Chart
Orbit Comprehensive Analysis Chart
View Comprehensive Chart